| time (UTC) | temp F | wind direction | speed MPH | gust MPH | rain 1hr in | rain 24hr in | rain mn in | humidity % | barometer mb |
| 20260505210713 | 53 | 280 | 9.0 | 10.0 | 0.00 | 0.02 | 0.02 | 73 | 1018.4 |
| 20260505210210 | 53 | 232 | 7.0 | 8.0 | 0.00 | 0.02 | 0.02 | 72 | 1018.0 |
| 20260505205708 | 53 | 251 | 8.0 | 10.0 | 0.00 | 0.02 | 0.02 | 72 | 1018.0 |
| 20260505205206 | 53 | 275 | 4.0 | 7.0 | 0.00 | 0.02 | 0.02 | 73 | 1018.0 |
| 20260505204702 | 53 | 304 | 8.0 | 10.0 | 0.00 | 0.02 | 0.02 | 72 | 1017.7 |
| 20260505204200 | 53 | 264 | 6.0 | 8.0 | 0.00 | 0.02 | 0.02 | 72 | 1017.7 |
| 20260505203657 | 53 | 278 | 7.0 | 9.0 | 0.00 | 0.02 | 0.02 | 72 | 1017.5 |
| 20260505203154 | 52 | 265 | 5.0 | 5.0 | 0.00 | 0.02 | 0.02 | 73 | 1017.8 |
| 20260505202649 | 52 | 271 | 0.0 | 0.0 | 0.00 | 0.02 | 0.02 | 74 | 1017.8 |
| 20260505202146 | 53 | 256 | 5.0 | 6.0 | 0.00 | 0.02 | 0.02 | 75 | 1017.9 |
| 20260505201642 | 53 | 292 | 6.0 | 7.0 | 0.00 | 0.02 | 0.02 | 75 | 1017.9 |
| 20260505201141 | 53 | 272 | 6.0 | 8.0 | 0.00 | 0.02 | 0.02 | 74 | 1018.0 |
| 20260505200638 | 52 | 249 | 2.0 | 2.0 | 0.00 | 0.02 | 0.02 | 74 | 1017.8 |
| 20260505200135 | 52 | 349 | 4.0 | 6.0 | 0.00 | 0.02 | 0.02 | 75 | 1018.0 |
| 20260505195631 | 52 | 292 | 1.0 | 2.0 | 0.00 | 0.02 | 0.02 | 75 | 1017.8 |
| 20260505195128 | 51 | 287 | 2.0 | 2.0 | 0.00 | 0.02 | 0.02 | 75 | 1017.9 |
| 20260505194625 | 52 | 296 | 2.0 | 2.0 | 0.00 | 0.02 | 0.02 | 74 | 1017.8 |
| 20260505194121 | 52 | 30 | 4.0 | 5.0 | 0.00 | 0.02 | 0.02 | 75 | 1017.7 |
| 20260505193618 | 52 | 351 | 1.0 | 1.0 | 0.00 | 0.02 | 0.02 | 74 | 1017.8 |
| 20260505193115 | 53 | 300 | 1.0 | 2.0 | 0.00 | 0.02 | 0.02 | 73 | 1017.8 |
| 20260505192614 | 53 | 292 | 1.0 | 2.0 | 0.00 | 0.02 | 0.02 | 73 | 1017.8 |
| 20260505192111 | 53 | 249 | 1.0 | 1.0 | 0.00 | 0.02 | 0.02 | 72 | 1017.8 |
| 20260505191609 | 53 | 145 | 1.0 | 1.0 | 0.00 | 0.02 | 0.02 | 72 | 1017.7 |
| 20260505191108 | 53 | 133 | 2.0 | 2.0 | 0.00 | 0.02 | 0.02 | 72 | 1017.7 |
| 20260505190603 | 54 | 269 | 0.0 | 1.0 | 0.00 | 0.02 | 0.02 | 71 | 1017.7 |
| 20260505190058 | 55 | 231 | 1.0 | 1.0 | 0.00 | 0.02 | 0.02 | 70 | 1017.5 |
| 20260505185555 | 55 | 235 | 8.0 | 9.0 | 0.00 | 0.02 | 0.02 | 70 | 1017.3 |
| 20260505185052 | 55 | 256 | 7.0 | 9.0 | 0.00 | 0.02 | 0.02 | 70 | 1017.4 |
| 20260505184548 | 55 | 232 | 10.0 | 10.0 | 0.00 | 0.02 | 0.02 | 70 | 1017.3 |
| 20260505184045 | 55 | 229 | 5.0 | 9.0 | 0.00 | 0.02 | 0.02 | 70 | 1017.3 |
| 20260505183542 | 54 | 234 | 3.0 | 6.0 | 0.00 | 0.02 | 0.02 | 70 | 1017.2 |
| 20260505183039 | 54 | 253 | 6.0 | 9.0 | 0.00 | 0.02 | 0.02 | 72 | 1017.1 |
| 20260505182535 | 53 | 256 | 8.0 | 10.0 | 0.00 | 0.02 | 0.02 | 73 | 1017.0 |
| 20260505182032 | 53 | 238 | 6.0 | 8.0 | 0.00 | 0.02 | 0.02 | 75 | 1017.2 |
| 20260505181529 | 54 | 275 | 4.0 | 6.0 | 0.00 | 0.02 | 0.02 | 75 | 1017.0 |
| 20260505181026 | 54 | 236 | 11.0 | 15.0 | 0.00 | 0.02 | 0.02 | 74 | 1016.9 |
| 20260505180521 | 54 | 251 | 10.0 | 11.0 | 0.00 | 0.02 | 0.02 | 73 | 1016.9 |
| 20260505180021 | 54 | 238 | 6.0 | 7.0 | 0.00 | 0.02 | 0.02 | 73 | 1017.0 |
| 20260505175515 | 54 | 240 | 9.0 | 11.0 | 0.00 | 0.02 | 0.02 | 72 | 1016.7 |
| 20260505175012 | 54 | 268 | 9.0 | 14.0 | 0.00 | 0.02 | 0.02 | 72 | 1016.3 |
| 20260505174509 | 54 | 264 | 9.0 | 14.0 | 0.00 | 0.02 | 0.02 | 72 | 1016.6 |
| 20260505174005 | 54 | 239 | 11.0 | 14.0 | 0.00 | 0.02 | 0.02 | 73 | 1016.7 |
| 20260505173502 | 54 | 263 | 7.0 | 9.0 | 0.00 | 0.02 | 0.02 | 73 | 1016.6 |
| 20260505172958 | 53 | 253 | 4.0 | 7.0 | 0.00 | 0.02 | 0.02 | 74 | 1016.4 |
| 20260505172457 | 53 | 260 | 4.0 | 6.0 | 0.00 | 0.02 | 0.02 | 74 | 1016.3 |
| 20260505171956 | 53 | 158 | 3.0 | 3.0 | 0.00 | 0.02 | 0.02 | 74 | 1016.3 |
| 20260505171453 | 53 | 95 | 5.0 | 9.0 | 0.00 | 0.02 | 0.02 | 75 | 1016.3 |
| 20260505170949 | 53 | 276 | 8.0 | 9.0 | 0.00 | 0.02 | 0.02 | 76 | 1015.9 |
| 20260505170446 | 53 | 301 | 6.0 | 7.0 | 0.00 | 0.02 | 0.02 | 76 | 1016.3 |
| 20260505165941 | 53 | 239 | 6.0 | 8.0 | 0.00 | 0.02 | 0.02 | 77 | 1016.6 |
| 20260505165438 | 53 | 246 | 4.0 | 6.0 | 0.00 | 0.02 | 0.02 | 77 | 1016.6 |
| 20260505164933 | 53 | 93 | 3.0 | 3.0 | 0.00 | 0.02 | 0.02 | 78 | 1016.5 |
| 20260505164430 | 53 | 249 | 4.0 | 5.0 | 0.00 | 0.02 | 0.02 | 77 | 1016.5 |
| 20260505163928 | 53 | 278 | 5.0 | 6.0 | 0.00 | 0.02 | 0.02 | 78 | 1016.4 |
| 20260505163427 | 53 | 242 | 4.0 | 5.0 | 0.00 | 0.02 | 0.02 | 78 | 1016.3 |
| 20260505162926 | 53 | 294 | 5.0 | 8.0 | 0.00 | 0.02 | 0.02 | 77 | 1016.4 |
| 20260505162421 | 53 | 274 | 4.0 | 6.0 | 0.00 | 0.02 | 0.02 | 77 | 1015.9 |
| 20260505161918 | 53 | 260 | 9.0 | 10.0 | 0.00 | 0.02 | 0.02 | 78 | 1015.9 |
| 20260505161414 | 53 | 246 | 9.0 | 11.0 | 0.00 | 0.02 | 0.02 | 79 | 1015.7 |
| 20260505160912 | 52 | 233 | 7.0 | 9.0 | 0.00 | 0.02 | 0.02 | 80 | 1015.9 |
| 20260505160410 | 52 | 233 | 9.0 | 11.0 | 0.00 | 0.02 | 0.02 | 79 | 1015.8 |
| 20260505153344 | 53 | 240 | 9.0 | 10.0 | 0.00 | 0.01 | 0.01 | 79 | 1016.0 |
| 20260505152840 | 53 | 225 | 9.0 | 11.0 | 0.00 | 0.01 | 0.01 | 77 | 1016.1 |
| 20260505152337 | 54 | 253 | 3.0 | 5.0 | 0.00 | 0.01 | 0.01 | 76 | 1015.9 |
| 20260505151831 | 54 | 299 | 8.0 | 11.0 | 0.00 | 0.01 | 0.01 | 76 | 1015.4 |
| 20260505151328 | 54 | 250 | 7.0 | 9.0 | 0.00 | 0.01 | 0.01 | 77 | 1015.7 |
| 20260505150825 | 55 | 318 | 5.0 | 7.0 | 0.00 | 0.01 | 0.01 | 76 | 1015.6 |
| 20260505150322 | 55 | 275 | 6.0 | 7.0 | 0.00 | 0.01 | 0.01 | 74 | 1015.7 |
| 20260505140246 | 58 | 325 | 6.0 | 7.0 | 0.00 | 0.01 | 0.01 | 61 | 1014.9 |
| 20260505130210 | 60 | 280 | 8.0 | 9.0 | 0.00 | 0.01 | 0.01 | 54 | 1014.7 |
| 20260505124700 | 60 | 276 | 8.0 | 13.0 | 0.00 | 0.01 | 0.01 | 58 | 1014.7 |
| 20260505124157 | 60 | 270 | 4.0 | 7.0 | 0.00 | 0.01 | 0.01 | 60 | 1014.6 |
| 20260505123653 | 60 | 248 | 5.0 | 7.0 | 0.00 | 0.01 | 0.01 | 58 | 1014.8 |
| 20260505123150 | 60 | 245 | 5.0 | 6.0 | 0.00 | 0.01 | 0.01 | 57 | 1014.6 |
| 20260505122646 | 60 | 234 | 3.0 | 5.0 | 0.00 | 0.01 | 0.01 | 58 | 1014.7 |
| 20260505122143 | 60 | 277 | 5.0 | 7.0 | 0.00 | 0.01 | 0.01 | 57 | 1014.6 |
| 20260505121640 | 60 | 240 | 7.0 | 9.0 | 0.00 | 0.01 | 0.01 | 59 | 1014.5 |
| 20260505121137 | 61 | 238 | 9.0 | 11.0 | 0.00 | 0.01 | 0.01 | 57 | 1014.6 |
| 20260505120627 | 61 | 225 | 8.0 | 9.0 | 0.00 | 0.01 | 0.01 | 59 | 1014.5 |
| 20260505120123 | 62 | 255 | 7.0 | 11.0 | 0.00 | 0.01 | 0.01 | 59 | 1014.8 |
| 20260505115618 | 61 | 244 | 5.0 | 6.0 | 0.00 | 0.01 | 0.01 | 60 | 1014.5 |
| 20260505115115 | 61 | 274 | 6.0 | 7.0 | 0.00 | 0.01 | 0.01 | 60 | 1014.9 |
| 20260505114612 | 60 | 309 | 6.0 | 7.0 | 0.00 | 0.01 | 0.01 | 61 | 1014.8 |
| 20260505114109 | 59 | 322 | 7.0 | 9.0 | 0.00 | 0.01 | 0.01 | 64 | 1015.0 |
| 20260505113605 | 58 | 248 | 3.0 | 5.0 | 0.00 | 0.01 | 0.01 | 66 | 1015.2 |
| 20260505113102 | 58 | 274 | 4.0 | 5.0 | 0.00 | 0.01 | 0.01 | 68 | 1015.1 |
| 20260505112558 | 57 | 300 | 4.0 | 6.0 | 0.00 | 0.01 | 0.01 | 69 | 1015.2 |
| 20260505112056 | 57 | 305 | 7.0 | 8.0 | 0.00 | 0.01 | 0.01 | 69 | 1015.2 |
| 20260505111555 | 57 | 300 | 5.0 | 7.0 | 0.00 | 0.01 | 0.01 | 70 | 1015.1 |
| 20260505111051 | 57 | 296 | 4.0 | 5.0 | 0.00 | 0.01 | 0.01 | 71 | 1015.4 |
| 20260505110548 | 57 | 306 | 5.0 | 7.0 | 0.00 | 0.01 | 0.01 | 71 | 1015.7 |
| 20260505102020 | 55 | 53 | 2.0 | 2.0 | 0.00 | 0.01 | 0.01 | 86 | 1016.1 |
| 20260505101519 | 56 | 37 | 2.0 | 3.0 | 0.00 | 0.01 | 0.01 | 87 | 1016.4 |
| 20260505101015 | 55 | 11 | 2.0 | 2.0 | 0.00 | 0.01 | 0.01 | 88 | 1016.4 |
| 20260505100512 | 54 | 330 | 2.0 | 2.0 | 0.00 | 0.01 | 0.01 | 89 | 1016.5 |
| 20260505100009 | 54 | 353 | 1.0 | 1.0 | 0.00 | 0.01 | 0.01 | 89 | 1016.3 |
| 20260505095505 | 53 | 55 | 3.0 | 3.0 | 0.00 | 0.01 | 0.01 | 90 | 1016.4 |
| 20260505095001 | 54 | 39 | 2.0 | 3.0 | 0.00 | 0.01 | 0.01 | 90 | 1016.5 |
| 20260505094458 | 54 | 60 | 3.0 | 5.0 | 0.00 | 0.01 | 0.01 | 90 | 1016.6 |
| 20260505093954 | 54 | 19 | 2.0 | 2.0 | 0.00 | 0.01 | 0.01 | 91 | 1016.6 |
| 20260505093451 | 54 | 13 | 3.0 | 5.0 | 0.00 | 0.01 | 0.01 | 91 | 1016.7 |
| 20260505092949 | 53 | 79 | 2.0 | 2.0 | 0.00 | 0.01 | 0.01 | 91 | 1016.6 |
| 20260505092446 | 54 | 37 | 1.0 | 2.0 | 0.00 | 0.01 | 0.01 | 92 | 1016.6 |
| 20260505091943 | 53 | 23 | 1.0 | 2.0 | 0.00 | 0.01 | 0.01 | 92 | 1016.6 |
| 20260505091441 | 54 | 353 | 3.0 | 3.0 | 0.00 | 0.01 | 0.01 | 92 | 1016.6 |
| 20260505090939 | 53 | 346 | 3.0 | 3.0 | 0.00 | 0.01 | 0.01 | 93 | 1016.8 |
| 20260505090437 | 53 | 357 | 1.0 | 2.0 | 0.00 | 0.01 | 0.01 | 93 | 1016.7 |
| 20260505085934 | 53 | 1 | 4.0 | 5.0 | 0.00 | 0.01 | 0.01 | 93 | 1016.8 |
| 20260505085431 | 53 | 100 | 2.0 | 2.0 | 0.00 | 0.01 | 0.01 | 94 | 1016.8 |
| 20260505084930 | 53 | 78 | 4.0 | 5.0 | 0.00 | 0.01 | 0.01 | 93 | 1016.7 |
| 20260505084427 | 53 | 136 | 3.0 | 3.0 | 0.00 | 0.01 | 0.01 | 93 | 1016.7 |
| 20260505083925 | 53 | 310 | 1.0 | 1.0 | 0.00 | 0.01 | 0.01 | 94 | 1016.7 |
| 20260505083423 | 53 | 330 | 1.0 | 1.0 | 0.00 | 0.01 | 0.01 | 94 | 1016.9 |
| 20260505082918 | 53 | 289 | 1.0 | 1.0 | 0.00 | 0.01 | 0.01 | 94 | 1016.9 |
| 20260505082414 | 52 | 333 | 1.0 | 1.0 | 0.00 | 0.01 | 0.01 | 94 | 1017.1 |
| 20260505081912 | 52 | 305 | 0.0 | 1.0 | 0.00 | 0.01 | 0.01 | 94 | 1016.9 |
| 20260505081408 | 52 | 311 | 1.0 | 1.0 | 0.00 | 0.01 | 0.01 | 94 | 1017.0 |
| 20260505080905 | 53 | 303 | 1.0 | 2.0 | 0.00 | 0.01 | 0.01 | 94 | 1017.1 |
| 20260505080401 | 53 | 302 | 0.0 | 1.0 | 0.00 | 0.01 | 0.01 | 94 | 1017.0 |
| 20260505075856 | 52 | 296 | 0.0 | 0.0 | 0.00 | 0.01 | 0.01 | 94 | 1016.9 |
| 20260505075353 | 52 | 307 | 0.0 | 0.0 | 0.00 | 0.01 | 0.01 | 94 | 1016.9 |
| 20260505074851 | 52 | 293 | 0.0 | 0.0 | 0.00 | 0.01 | 0.01 | 94 | 1017.1 |
| 20260505074348 | 51 | 292 | 0.0 | 1.0 | 0.07 | 0.01 | 0.01 | 94 | 1016.9 |
| 20260505073845 | 51 | 336 | 2.0 | 2.0 | 0.07 | 0.01 | 0.01 | 94 | 1017.0 |
| 20260505073343 | 51 | 329 | 1.0 | 2.0 | 0.00 | 0.00 | 0.00 | 94 | 1017.0 |
| 20260505072840 | 51 | 328 | 1.0 | 2.0 | 0.00 | 0.00 | 0.00 | 94 | 1017.0 |
| 20260505072336 | 51 | 299 | 0.0 | 0.0 | 0.00 | 0.00 | 0.00 | 94 | 1017.1 |
| 20260505071832 | 51 | 335 | 1.0 | 1.0 | 0.00 | 0.00 | 0.00 | 94 | 1017.1 |
| 20260505071328 | 51 | 325 | 1.0 | 2.0 | 0.00 | 0.00 | 0.00 | 94 | 1016.8 |
| 20260505070827 | 51 | 23 | 1.0 | 2.0 | 0.00 | 0.00 | 0.00 | 94 | 1016.6 |
| 20260505070323 | 51 | 259 | 0.0 | 0.0 | 0.00 | 0.00 | 0.00 | 94 | 1016.8 |
| 20260505065818 | 51 | 276 | 0.0 | 0.0 | 0.00 | 0.00 | 0.00 | 94 | 1016.6 |
| 20260505065315 | 51 | 241 | 0.0 | 0.0 | 0.00 | 0.00 | 0.00 | 94 | 1016.6 |
| 20260505064813 | 51 | 232 | 2.0 | 2.0 | 0.00 | 0.00 | 0.00 | 94 | 1016.4 |
| 20260505064309 | 51 | 248 | 0.0 | 0.0 | 0.00 | 0.00 | 0.00 | 94 | 1016.3 |
| 20260505063808 | 50 | 195 | 0.0 | 0.0 | 0.00 | 0.00 | 0.00 | 94 | 1016.4 |
| 20260505063303 | 51 | 301 | 0.0 | 1.0 | 0.00 | 0.00 | 0.00 | 94 | 1016.3 |
| 20260505062800 | 51 | 315 | 0.0 | 0.0 | 0.00 | 0.00 | 0.00 | 94 | 1016.3 |
| 20260505062258 | 51 | 343 | 2.0 | 3.0 | 0.00 | 0.00 | 0.00 | 94 | 1016.0 |
| 20260505061754 | 51 | 7 | 3.0 | 5.0 | 0.00 | 0.00 | 0.00 | 94 | 1016.3 |
| 20260505061252 | 51 | 336 | 0.0 | 0.0 | 0.00 | 0.00 | 0.00 | 94 | 1016.0 |
| 20260505060749 | 51 | 289 | 0.0 | 0.0 | 0.00 | 0.00 | 0.00 | 94 | 1015.7 |
| 20260505060246 | 50 | 305 | 0.0 | 0.0 | 0.00 | 0.00 | 0.00 | 94 | 1015.9 |
| 20260505055741 | 50 | 292 | 0.0 | 0.0 | 0.00 | 0.00 | 0.00 | 94 | 1015.8 |
| 20260505055233 | 50 | 292 | 0.0 | 0.0 | 0.00 | 0.00 | 0.00 | 94 | 1015.6 |
| 20260505054730 | 50 | 282 | 0.0 | 0.0 | 0.00 | 0.00 | 0.00 | 94 | 1015.8 |
| 20260505054228 | 49 | 266 | 0.0 | 0.0 | 0.00 | 0.00 | 0.00 | 94 | 1015.7 |
| 20260505053726 | 49 | 267 | 0.0 | 0.0 | 0.00 | 0.00 | 0.00 | 94 | 1015.7 |
| 20260505053222 | 49 | 261 | 0.0 | 0.0 | 0.00 | 0.00 | 0.00 | 93 | 1015.9 |
| 20260505052719 | 49 | 260 | 0.0 | 0.0 | 0.00 | 0.00 | 0.00 | 93 | 1015.7 |
| 20260505052216 | 49 | 208 | 0.0 | 0.0 | 0.00 | 0.00 | 0.00 | 93 | 1015.5 |
| 20260505051713 | 49 | 263 | 0.0 | 0.0 | 0.00 | 0.00 | 0.00 | 93 | 1015.5 |
| 20260505051211 | 49 | 263 | 0.0 | 0.0 | 0.00 | 0.00 | 0.00 | 93 | 1015.5 |
| 20260505050709 | 48 | 267 | 0.0 | 0.0 | 0.00 | 0.00 | 0.00 | 93 | 1015.5 |
| 20260505050207 | 48 | 256 | 0.0 | 0.0 | 0.00 | 0.00 | 0.00 | 93 | 1015.6 |
| 20260505041642 | 49 | 275 | 0.0 | 0.0 | 0.00 | 0.00 | 0.00 | 92 | 1015.5 |
| 20260505041140 | 49 | 334 | 0.0 | 0.0 | 0.00 | 0.00 | 0.00 | 92 | 1015.2 |
| 20260505040636 | 49 | 305 | 0.0 | 0.0 | 0.00 | 0.00 | 0.00 | 92 | 1015.3 |
| 20260505040134 | 49 | 304 | 0.0 | 0.0 | 0.00 | 0.00 | 0.00 | 92 | 1015.4 |
| 20260505035630 | 48 | 299 | 0.0 | 0.0 | 0.00 | 0.00 | 0.00 | 92 | 1015.5 |
| 20260505035126 | 48 | 296 | 0.0 | 0.0 | 0.00 | 0.00 | 0.00 | 92 | 1015.3 |
| 20260505034623 | 49 | 297 | 0.0 | 0.0 | 0.00 | 0.00 | 0.00 | 91 | 1015.5 |
| 20260505034120 | 49 | 298 | 0.0 | 0.0 | 0.00 | 0.00 | 0.00 | 91 | 1015.4 |
| 20260505033616 | 49 | 300 | 0.0 | 0.0 | 0.00 | 0.00 | 0.00 | 91 | 1015.6 |
| 20260505033115 | 49 | 288 | 0.0 | 0.0 | 0.00 | 0.00 | 0.00 | 91 | 1015.4 |
| 20260505032612 | 49 | 285 | 0.0 | 0.0 | 0.00 | 0.00 | 0.00 | 91 | 1015.5 |
| 20260505032109 | 49 | 286 | 0.0 | 0.0 | 0.00 | 0.00 | 0.00 | 91 | 1015.3 |
| 20260505031606 | 49 | 292 | 0.0 | 0.0 | 0.00 | 0.00 | 0.00 | 91 | 1015.2 |
| 20260505031102 | 49 | 292 | 1.0 | 1.0 | 0.00 | 0.00 | 0.00 | 91 | 1015.4 |
| 20260505030559 | 49 | 328 | 2.0 | 2.0 | 0.00 | 0.00 | 0.00 | 90 | 1015.2 |
| 20260505030055 | 49 | 314 | 1.0 | 1.0 | 0.00 | 0.00 | 0.00 | 90 | 1015.4 |
| 20260505025551 | 47 | 332 | 2.0 | 3.0 | 0.00 | 0.00 | 0.00 | 90 | 1015.2 |
| 20260505025050 | 47 | 278 | 0.0 | 0.0 | 0.00 | 0.00 | 0.00 | 90 | 1015.3 |
| 20260505024547 | 47 | 279 | 0.0 | 0.0 | 0.00 | 0.00 | 0.00 | 90 | 1015.3 |
| 20260505024044 | 48 | 282 | 0.0 | 0.0 | 0.00 | 0.00 | 0.00 | 89 | 1015.1 |
| 20260505023541 | 47 | 282 | 0.0 | 0.0 | 0.00 | 0.00 | 0.00 | 89 | 1015.3 |
| 20260505023039 | 47 | 281 | 0.0 | 0.0 | 0.00 | 0.00 | 0.00 | 89 | 1015.4 |
| 20260505022536 | 47 | 289 | 0.0 | 0.0 | 0.00 | 0.00 | 0.00 | 89 | 1015.2 |
| 20260505022033 | 47 | 292 | 0.0 | 1.0 | 0.00 | 0.00 | 0.00 | 89 | 1015.4 |
| 20260505021529 | 47 | 293 | 0.0 | 0.0 | 0.00 | 0.00 | 0.00 | 89 | 1015.2 |
| 20260505021026 | 47 | 289 | 1.0 | 1.0 | 0.00 | 0.00 | 0.00 | 89 | 1015.2 |
| 20260505020520 | 47 | 250 | 1.0 | 1.0 | 0.00 | 0.00 | 0.00 | 89 | 1015.4 |
| 20260505020018 | 48 | 263 | 0.0 | 0.0 | 0.00 | 0.00 | 0.00 | 88 | 1015.3 |
| 20260505015515 | 48 | 228 | 1.0 | 1.0 | 0.00 | 0.00 | 0.00 | 88 | 1015.3 |
| 20260505015011 | 48 | 255 | 2.0 | 2.0 | 0.00 | 0.00 | 0.00 | 88 | 1015.1 |
| 20260505014508 | 49 | 281 | 1.0 | 1.0 | 0.00 | 0.00 | 0.00 | 88 | 1015.1 |
| 20260505014006 | 49 | 303 | 1.0 | 1.0 | 0.00 | 0.00 | 0.00 | 88 | 1015.3 |
| 20260505013502 | 49 | 286 | 1.0 | 1.0 | 0.00 | 0.00 | 0.00 | 88 | 1015.0 |
| 20260505013000 | 48 | 286 | 1.0 | 2.0 | 0.00 | 0.00 | 0.00 | 88 | 1015.2 |
| 20260505012458 | 48 | 300 | 0.0 | 0.0 | 0.00 | 0.00 | 0.00 | 87 | 1015.2 |
| 20260505011954 | 48 | 301 | 1.0 | 1.0 | 0.00 | 0.00 | 0.00 | 87 | 1015.3 |
| 20260505011450 | 48 | 284 | 1.0 | 1.0 | 0.00 | 0.00 | 0.00 | 87 | 1015.3 |
| 20260505010947 | 48 | 248 | 1.0 | 2.0 | 0.00 | 0.00 | 0.00 | 86 | 1015.4 |
| 20260505010443 | 48 | 292 | 1.0 | 1.0 | 0.00 | 0.00 | 0.00 | 86 | 1015.3 |
| 20260505005939 | 48 | 308 | 2.0 | 3.0 | 0.00 | 0.00 | 0.00 | 85 | 1015.4 |
| 20260505005436 | 48 | 290 | 1.0 | 1.0 | 0.00 | 0.00 | 0.00 | 85 | 1015.5 |
| 20260505004934 | 48 | 263 | 0.0 | 0.0 | 0.00 | 0.00 | 0.00 | 85 | 1015.3 |
| 20260505004430 | 49 | 290 | 1.0 | 1.0 | 0.00 | 0.00 | 0.00 | 85 | 1015.4 |
| 20260505003927 | 49 | 291 | 1.0 | 1.0 | 0.00 | 0.00 | 0.00 | 84 | 1015.8 |
| 20260505003424 | 50 | 290 | 0.0 | 0.0 | 0.00 | 0.00 | 0.00 | 84 | 1015.7 |
| 20260505002920 | 50 | 287 | 1.0 | 1.0 | 0.00 | 0.00 | 0.00 | 84 | 1015.7 |
| 20260505002417 | 50 | 308 | 3.0 | 3.0 | 0.00 | 0.00 | 0.00 | 84 | 1015.7 |
| 20260505001915 | 51 | 293 | 1.0 | 1.0 | 0.00 | 0.00 | 0.00 | 84 | 1015.9 |
| 20260505001413 | 51 | 284 | 1.0 | 2.0 | 0.00 | 0.00 | 0.00 | 84 | 1016.0 |
| 20260505000910 | 51 | 279 | 3.0 | 5.0 | 0.00 | 0.00 | 0.00 | 83 | 1015.7 |
| 20260505000408 | 51 | 293 | 2.0 | 2.0 | 0.00 | 0.00 | 0.00 | 83 | 1015.9 |
| 20260504235904 | 51 | 304 | 2.0 | 2.0 | 0.00 | 0.00 | 0.00 | 82 | 1015.7 |
| 20260504235401 | 52 | 289 | 2.0 | 2.0 | 0.00 | 0.00 | 0.00 | 82 | 1015.9 |
| 20260504234857 | 52 | 226 | 2.0 | 3.0 | 0.00 | 0.00 | 0.00 | 82 | 1015.8 |
| 20260504234355 | 52 | 283 | 2.0 | 2.0 | 0.00 | 0.00 | 0.00 | 82 | 1015.7 |
| 20260504233851 | 52 | 217 | 2.0 | 2.0 | 0.00 | 0.00 | 0.00 | 82 | 1015.8 |
| 20260504233347 | 51 | 251 | 1.0 | 1.0 | 0.00 | 0.00 | 0.00 | 82 | 1015.8 |
| 20260504232844 | 51 | 277 | 2.0 | 3.0 | 0.00 | 0.00 | 0.00 | 83 | 1016.0 |
| 20260504232341 | 51 | 294 | 1.0 | 2.0 | 0.00 | 0.00 | 0.00 | 82 | 1015.9 |
| 20260504231838 | 52 | 323 | 2.0 | 2.0 | 0.00 | 0.00 | 0.00 | 82 | 1015.9 |
| 20260504231334 | 52 | 261 | 1.0 | 2.0 | 0.00 | 0.00 | 0.00 | 83 | 1015.6 |
| 20260504230830 | 51 | 258 | 1.0 | 2.0 | 0.00 | 0.00 | 0.00 | 83 | 1015.8 |
| 20260504230329 | 51 | 298 | 4.0 | 5.0 | 0.00 | 0.00 | 0.00 | 83 | 1015.8 |
| 20260504225827 | 51 | 267 | 1.0 | 1.0 | 0.00 | 0.00 | 0.00 | 84 | 1016.0 |
| 20260504225323 | 51 | 293 | 2.0 | 3.0 | 0.00 | 0.00 | 0.00 | 84 | 1016.0 |
| 20260504224821 | 51 | 273 | 0.0 | 1.0 | 0.00 | 0.00 | 0.00 | 84 | 1015.9 |
| 20260504224317 | 51 | 275 | 1.0 | 2.0 | 0.00 | 0.00 | 0.00 | 84 | 1016.0 |
| 20260504223814 | 51 | 280 | 2.0 | 3.0 | 0.00 | 0.00 | 0.00 | 84 | 1016.0 |
| 20260504223309 | 51 | 300 | 1.0 | 2.0 | 0.00 | 0.00 | 0.00 | 84 | 1016.0 |
| 20260504222807 | 51 | 252 | 2.0 | 2.0 | 0.00 | 0.00 | 0.00 | 83 | 1016.1 |
| 20260504222304 | 51 | 276 | 1.0 | 1.0 | 0.00 | 0.00 | 0.00 | 83 | 1016.5 |
| 20260504221801 | 51 | 293 | 1.0 | 1.0 | 0.00 | 0.00 | 0.00 | 83 | 1016.4 |
| 20260504221258 | 51 | 274 | 0.0 | 0.0 | 0.00 | 0.00 | 0.00 | 82 | 1016.5 |
| 20260504220755 | 51 | 275 | 2.0 | 2.0 | 0.00 | 0.00 | 0.00 | 82 | 1016.5 |
| 20260504220252 | 52 | 286 | 1.0 | 1.0 | 0.00 | 0.00 | 0.00 | 82 | 1016.3 |
| 20260504215749 | 52 | 285 | 2.0 | 3.0 | 0.00 | 0.11 | 0.11 | 82 | 1016.1 |
| 20260504215245 | 52 | 293 | 1.0 | 1.0 | 0.00 | 0.11 | 0.11 | 82 | 1016.1 |
| 20260504214741 | 52 | 266 | 2.0 | 2.0 | 0.00 | 0.11 | 0.11 | 81 | 1016.3 |
| 20260504214238 | 52 | 307 | 3.0 | 3.0 | 0.00 | 0.11 | 0.11 | 81 | 1016.5 |
| 20260504213735 | 53 | 25 | 1.0 | 1.0 | 0.00 | 0.11 | 0.11 | 81 | 1016.5 |
| 20260504213231 | 53 | 286 | 2.0 | 2.0 | 0.00 | 0.11 | 0.11 | 80 | 1016.3 |
| 20260504212728 | 53 | 315 | 3.0 | 3.0 | 0.00 | 0.11 | 0.11 | 81 | 1016.1 |
| 20260504212225 | 53 | 282 | 1.0 | 1.0 | 0.00 | 0.11 | 0.11 | 81 | 1016.4 |
| 20260504211722 | 53 | 270 | 4.0 | 6.0 | 0.00 | 0.11 | 0.11 | 81 | 1016.4 |
| 20260504211219 | 53 | 285 | 3.0 | 3.0 | 0.00 | 0.11 | 0.11 | 81 | 1016.5 |